Regional Weather Roundup
Issued by NWS Cleveland, OH

Home | Current Version | Previous Version | Graphics & Text | Print | Product List | Glossary On
Versions: 1 2 3 4 5 6 7 8 9 10 11 12 13 14 15 16 17 18 19 20 21 22 23 24 25 26 27 28 29 30 31 32 33 34 35 36 37 38 39 40 41 42 43 44 45 46 47 48 49 50
893
ASUS41 KCLE 231510
RWRCLE
OHIO REGIONAL WEATHER ROUNDUP
NATIONAL WEATHER SERVICE WILMINGTON, OH
1100 AM EDT SUN APR 23 2017

NOTE: "FAIR" INDICATES FEW OR NO CLOUDS BELOW 12,000 FEET WITH NO
SIGNIFICANT WEATHER AND/OR OBSTRUCTIONS TO VISIBILITY.

OHZ001>008-015>018-024>027-034-035-043-044-231600-
   NORTHWEST OHIO

CITY           SKY/WX    TMP DP  RH WIND       PRES   REMARKS
DEFIANCE       FAIR      54  33  45 NE8       30.13S
FINDLAY        FAIR      57  36  45 E12       30.10F
TOLEDO EXPRESS FAIR      56  28  34 CALM      30.13S
TOLEDO EXEC    FAIR      57  39  51 NE5       30.13F
LIMA           FAIR      55  38  52 NE14      30.09F
$$

OHZ009>014-019>023-028>033-038-089-231600-
   NORTHEAST OHIO

CITY           SKY/WX    TMP DP  RH WIND       PRES   REMARKS
CLE-HOPKINS    FAIR      58  34  40 E6        30.14F
CLE-LAKEFRONT  FAIR      52  42  69 NW3       30.11F
CUY CO. ARPT   SUNNY     59  36  41 SE5       30.13F
LORAIN-ELYRIA  FAIR      55  31  39 SE8       30.12F
ASHTABULA      FAIR      56  36  47 S7        30.13F
AKRON-CANTON   FAIR      56  35  45 VRB7      30.11F
WOOSTER        FAIR      55  36  48 E9        30.11F
MANSFIELD      FAIR      55  36  48 E12       30.10F
YOUNGSTOWN     FAIR      54  35  48 E9        30.14S
$$

OHZ042-051>053-060>062-070>072-077>081-231600-
  SOUTHWEST OHIO

CITY           SKY/WX    TMP DP  RH WIND       PRES   REMARKS
CINC-COVINGTON PTSUNNY   54  37  52 NE18      30.04R
CINC-LUNKEN    FAIR      54  42  64 NE10      30.06R
HAMILTON       FAIR      57  40  52 E12       30.08R
DAYTON         FAIR      57  33  40 NE16      30.09R
WRIGHT-PAT AFB FAIR      58  35  42 E9        30.08R
DAYTON GENERAL FAIR      56  38  50 E13       30.07R
WILMINGTON     FAIR      52  40  63 E10       30.06R
$$

OHZ036-037-039>041-045>050-054>059-063>069-073>076-082>088-231600-
  CENTRAL AND SOUTHEAST OHIO

CITY           SKY/WX    TMP DP  RH WIND       PRES   REMARKS
COLUMBUS       FAIR      58  38  47 E7        30.08R
OSU AIRPORT    FAIR      58  36  43 E13       30.08R
BOLTON FIELD   SUNNY     57  37  47 E8        30.09R
RICKENBACK AFB FAIR      55  38  53 E13       30.08R
NEWARK         FAIR      57  35  43 E12       30.08R
MARION         FAIR      59  33  37 NE12      30.09F
LANCASTER      FAIR      59  39  47 E12       30.07S
ZANESVILLE     FAIR      58  38  47 E10       30.08S
NEW PHILLY     FAIR      56  37  49 E7        30.10F
$$




USA.gov is the U.S. government's official web portal to all federal, state and local government web resources and services.